ATLAS 5 CENTAUR DEB, 44015

Orbit data source: Space-Track

ATLAS 5 CENTAUR DEB, 44015 is space debris in HEO originally from a launch on Wed, 17 Sep 2014 UTC launched from the Air Force Eastern Test Range (AFETR). Debris objects in space refer to the collection of defunct objects orbiting the Earth. Examples of debris include non-operational satellites, rocket bodies, and fragments generated from explosions, collisions, or faulty payload assembly.

Loading next visibility...
Identifier
44015, 2014-055BW
Orbit
HEO
Last TLE update
3 days ago
Origin
Flag of USUnited Launch Alliance/Lockheed Martin (US)
Manufacturer
Unknown
Mission
Spacecraft
Bus & Motor
Unknown
Mass
Unknown
Launch date (UTC)
2014-09-17 (11 years ago)
Launch vehicle
Unknown
Launch site
Air Force Eastern Test Range (AFETR)
Object type
Payload
Rocket body
Debris
Shape & HBR
Unknown
Radar Cross Section
RCS unknown

Expand to show TLE details & history

TLE from 3 days ago
0 ATLAS 5 CENTAUR DEB
1 44015U 14055BW  25180.31744412 -.00000061  00000-0  00000-0 0  9999
2 44015  20.8685 125.3784 5052269 198.7701 132.4440  1.95142975 47672
Epoch: 2025-06-29T07:37Z
TLE epoch observation values (Epoch: 2025-06-29T07:37:07.171Z)
Latitude
-0.00001°
Longitude
93.41885°
Altitude
32,261.956 km
Speed
2.428 km/s
True Right ascension
08h 21m 22s
True Declination
0° 00' 00"
Sunlit
Object was in daylight at epoch
Visualization orbit readout
Latitude
-18.62436°
Longitude
31.19622°
Altitude
15,138.289 km
Speed
4.724 km/s
Apparent Right ascension
04h 32m 09s
Apparent Declination
-23° 42' 16"
Sunlit
Object is in daylight
Visualization observer readout
Local Sidereal Time
17:55:48
Azimuth
53.655° ENE
Elevation
-66.06°
Doppler factor
1
Orbital elements
Apogee altitude
34,341.297 km
Perigee altitude
7,006.477 km
Semi-major axis
27,052.024 km
Eccentricity
0.50523
Inclination
20.8685°
RAAN
125.3784°
Arg. of periapsis
198.7701°
True anomaly
Unknown
Mean anomaly
132.444°
Eccentric anomaly
Unknown
Mean motion
0.4878 °/min
Orbital period
738 mins
BSTAR
0
Loading maneuver chart data...
Loading SW <> Apogee altitude chart data...

ATLAS 5 CENTAUR DEB Visibility forecast

Observer location: undefined°, undefined°

Span
Click to sort rows by Start time (UTC) header in descending order
Start Az.
Max El. time (UTC)
Max El. Az.
Max El.
End time (UTC)
End Az.
633 mins2025-07-02 18:38:06.318Z210.248° SW2025-07-03 04:13:06.318Z200.125° SSW41.001°2025-07-03 05:11:06.318Z123.155° SE
|